1512900001.18,13060,2.81,71814.3,-10.87,-44.13,-44.79,0,*66
1512900002.45,13061,2.81,71798.5,-10.87,-44.73,-44.99,0,*6F
1512900003.7,13062,2.81,71800.3,-10.87,-44.79,-45.33,0,*67
1512900004.91,13063,2.81,71802.5,-10.89,-44.99,-45.67,0,*67
1512900006.19,13064,2.81,71818.5,-10.89,-44.21,-44.93,0,*69
1512900007.42,13065,2.81,71814.3,-10.89,-43.15,-44.33,0,*62
1512900008.69,13066,2.81,71814.3,-10.89,-42.31,-43.29,0,*6A
1512900009.96,13067,2.81,71820.8,-10.91,-42.31,-43.15,0,*6D
1512900011.2,13068,2.81,71814.8,-10.89,-42.31,-43.15,0,*6B
1512900012.47,13069,2.81,71818.8,-10.89,-43.29,-43.55,0,*66
1512900013.74,13070,2.81,71820.3,-10.87,-42.89,-43.09,0,*62
1512900015.03,13071,2.81,71814.8,-10.87,-42.31,-42.69,0,*67
1512900016.3,13072,2.81,71804.8,-10.87,-42.95,-43.35,0,*62
1512900017.54,13073,2.81,71814.8,-10.87,-44.53,-44.99,0,*6E
1512900018.82,13074,2.81,71816.0,-10.83,-44.87,-45.27,0,*60
1512900020.09,13075,2.81,71834.5,-10.87,-44.73,-45.13,0,*69
1512900021.38,13076,2.81,71834.3,-10.87,-43.55,-44.33,0,*6A
1512900022.64,13077,2.81,71834.3,-10.87,-42.25,-43.29,0,*61
1512900023.88,13078,2.81,71820.5,-10.89,-42.63,-43.29,0,*62
1512900025.12,13079,2.81,71810.5,-10.89,-42.63,-42.83,0,*62
1512900026.36,13080,2.81,71804.8,-10.89,-42.13,-42.45,0,*69
1512900027.6,13081,2.81,71814.0,-10.89,-43.67,-44.07,0,*6A
1512900028.81,13082,2.81,71820.5,-10.89,-44.61,-45.13,0,*6C
1512900030.03,13083,2.81,71820.3,-10.89,-45.41,-46.01,0,*6E
1512900031.3,13084,2.81,71818.3,-10.91,-44.21,-44.79,0,*6A
1512900032.54,13085,2.81,71824.5,-10.89,-43.75,-44.13,0,*68
1512900033.78,13086,2.81,71832.3,-10.89,-43.41,-43.81,0,*60
1512900035.05,13087,2.81,71828.0,-10.91,-42.95,-43.35,0,*6F
1512900036.3,13088,2.81,71838.0,-10.91,-43.75,-43.95,0,*65
1512900037.57,13089,2.81,71838.8,-10.91,-44.67,-45.21,0,*69
1512900038.81,13090,2.81,71842.3,-10.91,-44.27,-44.79,0,*69
1512900040.03,13091,2.81,71848.0,-10.89,-44.53,-44.99,0,*6C
1512900041.27,13092,2.81,71838.3,-10.91,-44.27,-44.99,0,*65
1512900042.56,13093,2.81,71832.5,-10.91,-44.01,-44.47,0,*63
1512900043.81,13094,2.81,71830.8,-10.91,-44.87,-45.41,0,*6D
1512900045.05,13095,2.81,71818.8,-10.91,-45.41,-45.87,0,*6D
1512900046.29,13096,2.81,71808.5,-10.95,-44.87,-45.13,0,*6C
1512900047.53,13097,2.81,71810.0,-10.93,-43.81,-44.27,0,*6C
1512900048.77,13098,2.81,71824.3,-10.93,-43.95,-44.21,0,*60
1512900050.01,13099,2.81,71816.8,-10.95,-42.63,-43.41,0,*6E
1512900051.3,13100,2.81,71836.3,-10.95,-42.57,-43.21,0,*6E
1512900052.54,13101,2.81,71834.5,-10.95,-42.63,-43.41,0,*6E
1512900053.81,13102,2.81,71850.0,-10.95,-43.49,-44.33,0,*66
1512900055.08,13103,2.81,71850.8,-10.95,-43.09,-43.61,0,*63
1512900056.35,13104,2.81,71834.0,-10.95,-43.61,-44.01,0,*6B
1512900057.61,13105,2.81,71830.5,-10.95,-43.81,-44.07,0,*62
1512900058.88,13106,2.81,71830.5,-10.95,-44.07,-44.73,0,*6B
1512900060.14,13107,2.81,71820.0,-10.95,-43.49,-44.21,0,*60
1512900061.44,13108,2.81,71826.0,-10.95,-43.67,-44.01,0,*61
1512900062.64,13109,2.81,71828.0,-10.93,-44.41,-44.79,0,*6A
1512900063.93,13110,2.81,71822.0,-10.95,-44.21,-44.67,0,*6D
1512900065.17,13111,2.81,71818.0,-10.95,-45.67,-45.95,0,*63
1512900066.43,13112,2.81,71810.8,-10.95,-45.81,-46.21,0,*64
1512900067.68,13113,2.81,71808.5,-10.95,-45.67,-46.01,0,*6F
1512900068.92,13114,2.81,71810.8,-10.99,-45.13,-45.53,0,*63
1512900070.13,13115,2.75,71806.3,-10.97,-44.41,-44.79,0,*63
1512900071.37,13116,2.81,71828.5,-10.99,-43.75,-44.07,0,*67
1512900072.59,13117,2.81,71832.8,-10.97,-43.75,-44.27,0,*6A
1512900073.8,13118,2.81,71822.3,-10.97,-44.53,-45.13,0,*60
1512900075.04,13119,2.81,71814.8,-10.97,-43.95,-44.13,0,*6D
1512900076.26,13120,2.81,71812.5,-10.97,-43.75,-43.95,0,*60
1512900077.49,13121,2.81,71814.8,-10.99,-44.07,-44.53,0,*60
1512900078.73,13122,2.81,71826.8,-10.97,-43.87,-44.13,0,*66
1512900079.94,13123,2.81,71826.0,-10.97,-43.49,-43.87,0,*6F
1512900081.2,13124,2.81,71840.0,-10.97,-42.45,-43.29,0,*61
1512900082.44,13125,2.81,71844.0,-10.95,-40.65,-42.63,0,*6D
1512900083.68,13126,2.81,71838.3,-10.93,-39.47,-42.19,0,*6B
1512900084.98,13127,2.81,71840.5,-10.95,-39.41,-41.67,0,*60
1512900086.22,13128,2.81,71822.3,-10.93,-40.91,-42.31,0,*6A
1512900087.49,13129,2.81,71846.3,-10.93,-41.93,-42.69,0,*65
1512900088.73,13130,2.81,71848.0,-10.95,-41.87,-42.37,0,*65
1512900089.95,13131,2.81,71834.3,-10.93,-43.01,-43.35,0,*6D
1512900091.25,13132,2.81,71828.0,-10.95,-42.95,-43.09,0,*6B
1512900092.52,13133,2.81,71840.0,-10.95,-42.37,-43.09,0,*62
1512900093.73,13134,2.81,71834.0,-10.93,-43.75,-44.27,0,*6F
1512900095.01,13135,2.81,71824.3,-10.95,-44.33,-44.67,0,*69
1512900096.27,13136,2.81,71812.8,-10.95,-44.07,-44.47,0,*6F
1512900097.56,13137,2.81,71796.3,-10.95,-44.21,-44.33,0,*69
1512900098.81,13138,2.81,71804.5,-10.95,-44.27,-44.27,0,*65
1512900100.02,13139,2.81,71812.3,-10.97,-45.41,-45.87,0,*6C
1512900101.31,13140,2.81,71822.8,-10.99,-46.69,-46.89,0,*68
1512900102.55,13141,2.81,71828.5,-10.99,-46.83,-47.17,0,*6B
1512900103.84,13142,2.81,71842.3,-11.03,-46.69,-46.89,0,*68
1512900105.09,13143,2.81,71840.0,-11.05,-46.69,-46.75,0,*6C
1512900106.34,13144,2.81,71844.0,-11.09,-45.95,-45.73,0,*62
1512900107.61,13145,2.81,71848.8,-11.11,-45.27,-45.27,0,*62
1512900108.84,13146,2.81,71844.8,-11.09,-45.33,-45.33,0,*68
1512900110.09,13147,2.81,71834.3,-11.09,-45.67,-45.73,0,*6C
1512900111.33,13148,2.81,71832.0,-11.09,-46.35,-46.75,0,*62
1512900112.6,13149,2.81,71832.3,-11.13,-46.01,-46.41,0,*68
1512900113.87,13150,2.81,71826.3,-11.13,-44.53,-44.73,0,*66
1512900115.11,13151,2.81,71826.3,-11.13,-45.13,-45.53,0,*61
1512900116.37,13152,2.81,71822.5,-11.13,-45.73,-46.21,0,*62
1512900117.6,13153,2.81,71820.0,-11.15,-46.21,-46.61,0,*65
1512900118.85,13154,2.81,71814.0,-11.17,-46.35,-46.55,0,*62
1512900120.12,13155,2.81,71804.8,-11.17,-47.09,-47.37,0,*68
1512900121.41,13156,2.81,71808.8,-11.21,-46.07,-46.41,0,*61
1512900122.68,13157,2.81,71822.8,-11.21,-45.53,-46.07,0,*60
1512900123.96,13158,2.81,71834.5,-11.21,-42.45,-44.47,0,*69
1512900125.23,13159,2.81,71826.3,-11.21,-41.61,-43.67,0,*68
1512900126.45,13160,2.81,71832.3,-11.19,-40.53,-42.63,0,*6C
1512900127.7,13161,2.81,71830.5,-11.21,-40.53,-42.45,0,*62
1512900128.95,13162,2.81,71832.8,-11.21,-40.15,-41.73,0,*65
1512900130.19,13163,2.81,71836.5,-11.21,-41.99,-43.61,0,*60
1512900131.47,13164,2.81,71828.3,-11.21,-42.19,-43.35,0,*6D
1512900132.73,13165,2.81,71842.0,-11.21,-41.73,-42.83,0,*6F
1512900133.99,13166,2.81,71840.8,-11.21,-40.97,-42.25,0,*6B
1512900135.28,13167,2.81,71838.0,-11.21,-41.81,-42.45,0,*6A
1512900136.5,13168,2.81,71840.8,-11.19,-42.37,-42.75,0,*63
1512900137.72,13169,2.81,71836.0,-11.19,-43.01,-43.49,0,*68
1512900138.96,13170,2.81,71834.0,-11.19,-43.41,-43.81,0,*60
1512900140.17,13171,2.81,71834.8,-11.19,-43.87,-44.07,0,*62
1512900141.39,13172,2.81,71828.0,-11.19,-43.41,-43.49,0,*66
1512900142.61,13173,2.81,71820.3,-11.19,-43.35,-43.49,0,*64
1512900143.87,13174,2.81,71828.5,-11.19,-43.81,-43.81,0,*68
1512900145.11,13175,2.81,71826.3,-11.19,-44.07,-44.01,0,*6F
1512900146.36,13176,2.81,71820.8,-11.19,-44.73,-44.87,0,*61
1512900147.63,13177,2.81,71826.8,-11.19,-44.93,-45.07,0,*67
1512900148.89,13178,2.81,71830.3,-11.21,-44.01,-44.07,0,*69
1512900150.14,13179,2.81,71826.8,-11.21,-43.41,-43.41,0,*6E
1512900151.36,13180,2.81,71826.8,-11.19,-43.49,-43.61,0,*69
1512900152.62,13181,2.81,71828.0,-11.19,-43.67,-43.81,0,*6A
1512900153.89,13182,2.81,71838.0,-11.21,-43.41,-43.67,0,*6E
1512900155.16,13183,2.81,71836.5,-11.21,-42.57,-42.75,0,*6B
1512900156.44,13184,2.81,71832.8,-11.21,-42.57,-42.83,0,*65
1512900157.68,13185,2.81,71834.3,-11.19,-42.57,-43.01,0,*64
1512900158.92,13186,2.81,71840.0,-11.19,-42.05,-42.63,0,*65
1512900160.16,13187,2.81,71842.5,-11.19,-41.61,-42.45,0,*61
1512900161.43,13188,2.81,71838.5,-11.21,-42.45,-43.01,0,*61
1512900162.67,13189,2.81,71840.0,-11.19,-43.41,-44.01,0,*69
1512900163.91,13190,2.81,71836.5,-11.17,-43.35,-43.95,0,*66
1512900165.18,13191,2.81,71842.3,-11.17,-43.75,-44.01,0,*69
1512900166.42,13192,2.81,71842.0,-11.19,-44.01,-44.41,0,*64
1512900167.68,13193,2.81,71838.0,-11.21,-44.01,-44.27,0,*6E
1512900168.95,13194,2.81,71826.5,-11.21,-44.47,-44.87,0,*61
1512900170.17,13195,2.81,71830.8,-11.19,-44.27,-44.61,0,*65
1512900171.41,13196,2.81,71832.5,-11.21,-44.07,-44.41,0,*6D
1512900172.65,13197,2.81,71834.8,-11.19,-44.47,-44.87,0,*69
1512900173.89,13198,2.81,71830.8,-11.21,-44.61,-45.13,0,*65
1512900175.13,13199,2.81,71820.0,-11.23,-44.73,-45.13,0,*65
1512900176.35,13200,2.81,71822.0,-11.23,-44.27,-44.61,0,*63
1512900177.62,13201,2.81,71828.0,-11.23,-43.81,-44.21,0,*6D
1512900178.88,13202,2.81,71832.0,-11.25,-43.55,-43.95,0,*69
1512900180.12,13203,2.81,71832.5,-11.23,-43.21,-43.49,0,*6C
1512900181.37,13204,2.81,71834.5,-11.23,-43.61,-44.21,0,*66
1512900182.6,13205,2.81,71830.8,-11.23,-44.41,-44.67,0,*60
1512900183.85,13206,2.81,71824.3,-11.23,-44.47,-44.87,0,*6B
1512900185.09,13207,2.81,71830.5,-11.25,-44.99,-45.33,0,*61
1512900186.34,13208,2.81,71824.3,-11.25,-44.79,-45.13,0,*62
1512900187.6,13209,2.81,71826.3,-11.25,-44.67,-44.79,0,*61
1512900188.85,13210,2.81,71822.3,-11.25,-44.79,-44.99,0,*68
1512900190.1,13211,2.81,71816.8,-11.31,-45.27,-45.41,0,*62
1512900191.32,13212,2.81,71820.3,-11.31,-44.99,-45.41,0,*65
1512900192.56,13213,2.81,71822.8,-11.31,-44.79,-45.07,0,*68
1512900193.81,13214,2.81,71824.8,-11.31,-45.21,-45.47,0,*67
1512900195.06,13215,2.81,71826.8,-11.33,-44.99,-45.61,0,*62
1512900196.33,13216,2.81,71824.5,-11.33,-44.79,-45.27,0,*6D
1512900197.55,13217,2.81,71826.0,-11.35,-44.27,-44.79,0,*6B
1512900198.82,13218,2.81,71832.5,-11.35,-43.67,-44.21,0,*6A
1512900200.06,13219,2.81,71832.8,-11.35,-43.15,-43.81,0,*63
1512900201.3,13220,2.81,71834.0,-11.35,-42.57,-43.41,0,*62
1512900202.54,13221,2.81,71838.5,-11.35,-41.93,-43.15,0,*69
1512900203.78,13222,2.81,71836.0,-11.35,-40.91,-42.45,0,*6D
1512900205.02,13223,2.81,71834.0,-11.33,-40.91,-42.13,0,*69
1512900206.27,13224,2.81,71834.0,-11.35,-41.23,-42.75,0,*60
1512900207.54,13225,2.81,71830.5,-11.33,-41.93,-43.35,0,*69
1512900208.79,13226,2.81,71832.8,-11.35,-42.13,-43.21,0,*62
1512900210.03,13227,2.81,71832.0,-11.35,-41.81,-43.01,0,*69
1512900211.28,13228,2.81,71834.5,-11.35,-42.25,-43.21,0,*69
1512900212.52,13229,2.81,71834.0,-11.37,-42.75,-43.87,0,*63
1512900213.76,13230,2.81,71832.8,-11.39,-42.83,-43.75,0,*61
1512900215.01,13231,2.81,71834.8,-11.39,-42.63,-43.67,0,*6D
1512900216.25,13232,2.81,71834.0,-11.39,-42.45,-43.75,0,*69
1512900217.49,13233,2.81,71834.0,-11.41,-42.19,-43.49,0,*61
1512900218.71,13234,2.81,71826.3,-11.41,-42.25,-43.95,0,*68
1512900219.94,13235,2.81,71826.8,-11.41,-42.45,-44.27,0,*61
1512900221.2,13236,2.81,71826.0,-11.43,-43.09,-44.53,0,*6A
1512900222.49,13237,2.81,71826.0,-11.43,-42.95,-44.21,0,*6A
1512900223.73,13238,2.81,71824.3,-11.45,-42.57,-43.75,0,*6B
1512900224.99,13239,2.81,71828.3,-11.45,-42.31,-43.29,0,*63
1512900226.23,13240,2.81,71828.0,-11.47,-42.75,-44.07,0,*64
1512900227.5,13241,2.81,71830.8,-11.47,-42.45,-43.61,0,*61
1512900228.77,13242,2.81,71832.0,-11.45,-42.31,-43.55,0,*64
1512900229.99,13243,2.81,71834.5,-11.45,-42.25,-43.35,0,*66
1512900231.25,13244,2.81,71838.3,-11.47,-42.57,-43.75,0,*62
1512900232.46,13245,2.81,71838.5,-11.49,-42.63,-43.75,0,*6A
1512900233.7,13246,2.81,71836.8,-11.49,-42.45,-43.35,0,*69
1512900234.95,13247,2.81,71838.8,-11.49,-41.55,-42.63,0,*68
1512900236.21,13248,2.81,71840.0,-11.49,-41.23,-42.57,0,*61
1512900237.42,13249,2.81,71842.8,-11.49,-41.41,-43.01,0,*66
1512900238.63,13250,2.81,71842.3,-11.49,-42.63,-44.07,0,*6C
1512900239.86,13251,2.81,71836.3,-11.49,-43.21,-44.41,0,*68
1512900241.12,13252,2.81,71840.3,-11.51,-42.95,-43.87,0,*61
1512900242.37,13253,2.81,71840.3,-11.51,-43.01,-43.95,0,*6F
1512900243.63,13254,2.81,71838.8,-11.51,-43.41,-44.47,0,*64
1512900244.91,13255,2.81,71836.5,-11.51,-43.21,-44.13,0,*62
1512900246.16,13256,2.81,71836.5,-11.51,-43.49,-44.47,0,*6E
1512900247.43,13257,2.81,71840.5,-11.51,-43.09,-44.07,0,*6F
1512900248.67,13258,2.81,71846.0,-11.51,-42.51,-43.49,0,*61
1512900249.91,13259,2.81,71850.8,-11.51,-42.51,-43.41,0,*68
1512900251.15,13260,2.81,71854.3,-11.51,-42.63,-43.49,0,*6B
1512900252.41,13261,2.81,71848.8,-11.51,-43.01,-43.81,0,*6B
1512900253.69,13262,2.81,71850.5,-11.51,-43.81,-44.67,0,*6F
1512900254.95,13263,2.81,71852.5,-11.51,-43.61,-44.33,0,*61
1512900256.18,13264,2.81,71854.0,-11.49,-43.21,-44.07,0,*6C
1512900257.43,13265,2.81,71850.5,-11.55,-43.61,-44.27,0,*66
1512900258.69,13266,2.81,71850.8,-11.55,-43.29,-43.87,0,*64
1512900259.99,13267,2.81,71850.5,-11.55,-43.09,-43.67,0,*69
1512900261.23,13268,2.81,71852.8,-11.55,-43.61,-44.27,0,*6B
1512900262.44,13269,2.81,71852.5,-11.57,-44.41,-44.99,0,*68
1512900263.67,13270,2.81,71854.5,-11.55,-43.95,-44.53,0,*6A
1512900264.92,13271,2.81,71850.3,-11.57,-44.53,-44.93,0,*68
1512900266.16,13272,2.81,71846.5,-11.57,-44.73,-45.13,0,*60
1512900267.37,13273,2.81,71842.8,-11.57,-44.61,-45.13,0,*62
1512900268.61,13274,2.81,71842.8,-11.57,-44.73,-44.99,0,*65
1512900269.84,13275,2.81,71840.5,-11.57,-44.33,-44.79,0,*6E
1512900271.11,13276,2.81,71840.5,-11.59,-44.21,-44.79,0,*60
1512900272.35,13277,2.81,71844.8,-11.61,-44.47,-44.99,0,*64
1512900273.61,13278,2.81,71846.0,-11.61,-44.21,-44.67,0,*6A
1512900274.84,13279,2.81,71844.8,-11.59,-43.87,-44.53,0,*6C
1512900276.09,13280,2.81,71844.5,-11.61,-44.01,-44.67,0,*6F
1512900277.33,13281,2.81,71842.5,-11.61,-43.81,-44.61,0,*67
1512900278.55,13282,2.81,71842.8,-11.61,-44.27,-45.21,0,*6A
1512900279.8,13283,2.81,71842.0,-11.67,-44.53,-45.53,0,*6B
1512900281.07,13284,2.81,71840.0,-11.67,-44.73,-45.53,0,*6E
1512900282.32,13285,2.81,71846.5,-11.67,-45.13,-45.53,0,*68
1512900283.57,13286,2.81,71842.3,-11.67,-45.53,-46.01,0,*6B
1512900284.82,13287,2.81,71840.5,-11.69,-46.01,-46.27,0,*64
1512900286.12,13288,2.81,71836.0,-11.71,-45.47,-45.81,0,*6C
1512900287.36,13289,2.81,71836.3,-11.71,-45.41,-45.87,0,*6D
1512900288.61,13290,2.81,71834.8,-11.71,-45.21,-45.61,0,*6B
1512900289.85,13291,2.81,71832.5,-11.73,-45.41,-45.67,0,*68
1512900291.11,13292,2.81,71828.8,-11.73,-45.21,-45.47,0,*6F
1512900292.34,13293,2.81,71830.5,-11.75,-44.87,-45.21,0,*65
1512900293.56,13294,2.81,71832.3,-11.75,-45.95,-46.35,0,*66
1512900294.8,13295,2.81,71824.0,-11.75,-46.27,-46.55,0,*6B
1512900296.05,13296,2.81,71824.8,-11.79,-46.15,-46.21,0,*66
1512900297.3,13297,2.81,71814.3,-11.81,-45.61,-46.01,0,*62
1512900298.56,13298,2.81,71818.0,-11.81,-45.61,-46.01,0,*6D
1512900299.78,13299,2.81,71818.8,-11.83,-45.67,-46.21,0,*6A
1512900301.04,13300,2.81,71794.0,-11.85,-45.87,-46.27,0,*65
1512900302.31,13301,2.81,71796.8,-11.85,-45.81,-46.21,0,*64
1512900303.6,13302,2.81,71788.5,-11.85,-46.07,-46.61,0,*6E
1512900304.87,13303,2.81,71788.8,-11.89,-46.35,-46.49,0,*68
1512900306.14,13304,2.81,71804.5,-11.89,-45.95,-46.27,0,*6E
1512900307.43,13305,2.81,71814.3,-11.89,-46.49,-46.69,0,*67
1512900308.66,13306,2.81,71816.5,-11.95,-46.01,-46.35,0,*6C
1512900309.9,13307,2.81,71822.3,-11.95,-45.73,-46.35,0,*6B
1512900311.15,13308,2.81,71824.8,-11.95,-44.87,-45.47,0,*68
1512900312.4,13309,2.81,71826.5,-11.97,-45.53,-46.01,0,*62
1512900313.62,13310,2.81,71826.8,-11.99,-45.53,-45.87,0,*69
1512900314.84,13311,2.81,71826.0,-11.99,-45.13,-45.61,0,*64
1512900316.08,13312,2.81,71828.0,-11.99,-45.87,-46.49,0,*63
1512900317.33,13313,2.81,71834.5,-11.99,-46.01,-46.49,0,*6F
1512900318.58,13314,2.81,71830.3,-11.99,-46.15,-46.55,0,*60
1512900319.88,13315,2.81,71832.8,-12.01,-46.49,-46.69,0,*65
1512900321.14,13316,2.81,71832.3,-12.01,-46.69,-46.97,0,*65
1512900322.39,13317,2.81,71832.8,-12.07,-46.35,-46.75,0,*67
1512900323.63,13318,2.81,71826.3,-12.07,-46.35,-46.55,0,*6A
1512900324.93,13319,2.81,71816.5,-12.07,-46.15,-46.41,0,*6C
1512900326.2,13320,2.81,71816.0,-12.07,-46.01,-46.15,0,*62
1512900327.46,13321,2.81,71818.5,-12.11,-45.73,-45.95,0,*69
1512900328.7,13322,2.81,71816.8,-12.11,-45.13,-45.33,0,*60
1512900329.91,13323,2.81,71814.3,-12.09,-45.21,-45.61,0,*6E
1512900331.16,13324,2.81,71814.8,-12.13,-45.95,-46.07,0,*6E
1512900332.37,13325,2.81,71808.8,-12.13,-46.01,-46.21,0,*65
1512900333.65,13326,2.81,71808.5,-12.11,-46.01,-46.07,0,*60
1512900334.86,13327,2.81,71808.8,-12.13,-45.95,-46.01,0,*6B
1512900336.07,13328,2.81,71800.8,-12.17,-45.87,-45.87,0,*6E
1512900337.34,13329,2.81,71798.3,-12.17,-46.07,-46.15,0,*6C
1512900338.58,13330,2.81,71800.8,-12.17,-46.69,-46.75,0,*6A
1512900339.8,13331,2.81,71814.0,-12.21,-46.21,-46.35,0,*66
1512900341.06,13332,2.81,71806.8,-12.19,-46.41,-46.55,0,*6E
1512900342.33,13333,2.81,71802.3,-12.23,-46.83,-46.89,0,*69
1512900343.61,13334,2.81,71798.5,-12.23,-46.41,-46.49,0,*6C
1512900344.86,13335,2.81,71802.8,-12.23,-45.95,-46.01,0,*6B
1512900346.14,13336,2.81,71808.8,-12.23,-45.73,-45.81,0,*6B
1512900347.41,13337,2.81,71814.5,-12.27,-46.07,-46.01,0,*65
1512900348.71,13338,2.81,71812.3,-12.23,-46.15,-46.15,0,*68
1512900349.98,13339,2.81,71804.5,-12.29,-46.49,-46.89,0,*6F
1512900351.2,13340,2.81,71800.8,-12.29,-47.31,-47.31,0,*6D
1512900352.47,13341,2.81,71800.3,-12.31,-47.37,-47.65,0,*62
1512900353.71,13342,2.81,71806.3,-12.33,-47.45,-47.65,0,*66
1512900354.97,13343,2.81,71802.5,-12.33,-47.79,-47.93,0,*61
1512900356.26,13344,2.81,71804.3,-12.35,-47.03,-47.23,0,*66
1512900357.51,13345,2.81,71810.8,-12.39,-47.09,-47.23,0,*61
1512900358.74,13346,2.81,71806.3,-12.41,-46.55,-46.75,0,*67
1512900360.02,13347,2.81,71812.8,-12.43,-46.27,-46.49,0,*6E
1512900361.25,13348,2.81,71812.5,-12.41,-45.87,-46.21,0,*64
1512900362.49,13349,2.81,71812.5,-12.43,-44.99,-45.47,0,*6A
1512900363.71,13350,2.81,71808.8,-12.43,-44.99,-45.61,0,*66
1512900364.96,13351,2.81,71810.3,-12.43,-44.79,-45.47,0,*6D
1512900366.23,13352,2.81,71818.5,-12.43,-44.33,-44.93,0,*68
1512900367.53,13353,2.81,71814.3,-12.45,-44.73,-44.93,0,*6B
1512900368.77,13354,2.81,71814.8,-12.45,-45.21,-45.41,0,*64
1512900370.06,13355,2.81,71818.0,-12.45,-45.07,-45.07,0,*63
1512900371.31,13356,2.81,71816.5,-12.45,-45.21,-44.99,0,*62
1512900372.61,13357,2.81,71824.5,-12.45,-45.27,-45.27,0,*61
1512900373.86,13358,2.81,71826.0,-12.45,-45.73,-45.33,0,*6A
1512900375.1,13359,2.81,71822.0,-12.51,-45.33,-44.33,0,*6B
1512900376.37,13360,2.81,71818.0,-12.49,-44.53,-43.67,0,*69
1512900377.61,13361,2.81,71816.8,-12.51,-43.87,-43.67,0,*6F
1512900378.85,13362,2.81,71816.3,-12.51,-44.13,-44.07,0,*67
1512900380.12,13363,2.81,71816.8,-12.51,-44.33,-44.33,0,*63
1512900381.36,13364,2.81,71820.0,-12.53,-45.87,-45.87,0,*66
1512900382.6,13365,2.81,71818.8,-12.53,-45.67,-45.41,0,*63
1512900383.87,13366,2.81,71810.5,-12.53,-46.21,-45.81,0,*6D
1512900385.09,13367,2.81,71804.8,-12.55,-46.01,-45.87,0,*6E
1512900386.36,13368,2.81,71814.5,-12.55,-46.41,-46.27,0,*6C
1512900387.66,13369,2.81,71812.5,-12.57,-46.49,-46.27,0,*67
1512900388.93,13370,2.81,71812.0,-12.57,-46.75,-46.49,0,*68
1512900390.17,13371,2.81,71810.3,-12.59,-46.75,-46.69,0,*65
1512900391.45,13372,2.81,71828.5,-12.63,-46.49,-46.49,0,*62
1512900392.69,13373,2.81,71826.0,-12.63,-45.47,-45.67,0,*61
1512900393.91,13374,2.81,71820.0,-12.63,-45.87,-46.35,0,*6E
1512900395.18,13375,2.81,71820.0,-12.65,-46.75,-46.89,0,*60
1512900396.42,13376,2.81,71818.5,-12.65,-46.55,-46.75,0,*62
1512900397.67,13377,2.81,71810.5,-12.67,-47.09,-47.37,0,*6E
1512900398.89,13378,2.81,71804.3,-12.67,-46.97,-47.17,0,*65
1512900400.11,13379,2.81,71800.3,-12.67,-47.09,-47.17,0,*62
1512900401.35,13380,2.81,71814.5,-12.69,-47.37,-47.57,0,*63
1512900402.56,13381,2.81,71814.5,-12.69,-47.51,-47.51,0,*64
1512900403.77,13382,2.81,71812.5,-12.73,-47.57,-47.57,0,*6C
1512900405.0,13383,2.81,71814.3,-12.75,-47.17,-47.17,0,*6B
1512900406.26,13384,2.81,71814.3,-12.77,-47.23,-47.23,0,*6E
1512900407.53,13385,2.81,71814.5,-12.77,-47.23,-47.23,0,*6F
1512900408.74,13386,2.81,71830.0,-12.81,-47.51,-47.51,0,*65
1512900409.99,13387,2.81,71828.3,-12.79,-46.97,-46.97,0,*63
1512900411.23,13388,2.81,71820.5,-12.81,-46.61,-46.83,0,*67
1512900412.47,13389,2.81,71820.8,-12.81,-46.97,-47.03,0,*66
1512900413.74,13390,2.81,71822.5,-12.85,-46.27,-46.41,0,*66
1512900414.97,13391,2.81,71812.3,-12.85,-46.01,-46.01,0,*67
1512900416.23,13392,2.81,71826.0,-12.85,-46.41,-46.41,0,*64
1512900417.48,13393,2.81,71826.0,-12.87,-46.97,-46.97,0,*67
1512900418.77,13394,2.81,71826.0,-12.87,-47.45,-47.79,0,*6F
1512900420.05,13395,2.81,71836.8,-12.87,-46.49,-46.55,0,*6C
1512900421.26,13396,2.81,71844.8,-12.89,-45.67,-45.95,0,*61
1512900422.5,13397,2.81,71850.0,-12.89,-45.67,-45.81,0,*65
1512900423.77,13398,2.81,71844.5,-12.91,-45.53,-45.73,0,*69
1512900425.04,13399,2.81,71836.8,-12.89,-46.15,-46.15,0,*63
1512900426.31,13400,2.81,71840.5,-12.91,-45.73,-46.01,0,*6B
1512900427.58,13401,2.81,71830.8,-12.91,-46.15,-46.35,0,*6E
1512900428.85,13402,2.81,71816.8,-12.91,-46.41,-46.55,0,*6A
1512900430.11,13403,2.81,71814.8,-12.95,-46.01,-46.01,0,*6A
1512900431.36,13404,2.81,71822.8,-12.95,-46.01,-46.21,0,*6F
1512900432.65,13405,2.81,71826.3,-12.91,-46.41,-46.41,0,*68
1512900433.89,13406,2.81,71830.3,-12.97,-46.07,-46.21,0,*69
1512900435.16,13407,2.81,71832.8,-12.97,-46.41,-46.69,0,*66
1512900436.42,13408,2.81,71842.5,-12.97,-46.61,-47.03,0,*66
1512900437.64,13409,2.81,71842.5,-12.97,-46.83,-47.09,0,*61
1512900438.91,13410,2.81,71836.8,-12.97,-47.03,-47.23,0,*68
1512900440.18,13411,2.81,71834.3,-12.99,-47.31,-47.37,0,*63
1512900441.42,13412,2.81,71828.0,-12.97,-47.37,-47.57,0,*6E
1512900442.69,13413,2.81,71826.3,-13.01,-47.45,-47.57,0,*64
1512900443.93,13414,2.81,71818.0,-13.03,-47.45,-47.57,0,*61
1512900445.17,13415,2.81,71818.3,-13.03,-47.45,-47.65,0,*61
1512900446.39,13416,2.81,71836.0,-13.03,-47.31,-47.57,0,*60
1512900447.61,13417,2.81,71842.8,-13.07,-46.75,-46.83,0,*6C
1512900448.86,13418,2.81,71838.3,-13.11,-46.83,-46.89,0,*67
1512900450.1,13419,2.81,71840.0,-13.07,-46.97,-47.23,0,*65
1512900451.32,13420,2.81,71830.3,-13.11,-47.51,-47.57,0,*60
1512900452.54,13421,2.81,71818.8,-13.11,-47.51,-47.57,0,*61
1512900453.81,13422,2.81,71812.3,-13.11,-47.45,-47.71,0,*63
1512900455.08,13423,2.81,71810.0,-13.13,-47.65,-47.79,0,*6A
1512900456.32,13424,2.81,71814.3,-13.15,-47.65,-47.79,0,*6B
1512900457.53,13425,2.81,71826.3,-13.15,-46.97,-47.17,0,*6E
1512900458.76,13426,2.81,71824.8,-13.15,-46.35,-46.55,0,*62
1512900460.0,13427,2.81,71826.8,-13.15,-46.35,-46.69,0,*6C
1512900461.22,13428,2.81,71810.3,-13.15,-47.09,-47.17,0,*65
1512900462.46,13429,2.81,71806.8,-13.15,-47.37,-47.65,0,*6C
1512900463.67,13430,2.81,71814.8,-13.19,-47.17,-47.17,0,*6F
1512900464.89,13431,2.81,71814.8,-13.19,-46.55,-46.55,0,*6E
1512900466.14,13432,2.81,71818.3,-13.15,-45.87,-46.07,0,*6A
1512900467.38,13433,2.81,71814.0,-13.19,-46.27,-46.55,0,*69
1512900468.62,13434,2.81,71816.0,-13.15,-46.75,-47.03,0,*67
1512900469.89,13435,2.81,71820.5,-13.19,-47.03,-47.23,0,*68
1512900471.13,13436,2.81,71822.3,-13.21,-47.31,-47.65,0,*63
1512900472.38,13437,2.81,71820.3,-13.23,-46.83,-47.23,0,*6A
1512900473.64,13438,2.81,71822.8,-13.23,-46.41,-46.89,0,*6A
1512900474.91,13439,2.81,71820.5,-13.23,-46.61,-46.89,0,*69
1512900476.15,13440,2.81,71824.3,-13.23,-46.35,-46.69,0,*68
1512900477.43,13441,2.81,71822.5,-13.23,-46.15,-46.49,0,*69
1512900478.67,13442,2.81,71820.8,-13.23,-46.35,-46.89,0,*64
1512900479.9,13443,2.81,71816.8,-13.23,-46.01,-46.83,0,*68
1512900481.16,13444,2.81,71810.8,-13.23,-45.81,-46.61,0,*68
1512900482.42,13445,2.81,71810.3,-13.25,-46.21,-46.69,0,*6E
1512900483.68,13446,2.81,71810.0,-13.25,-46.41,-46.97,0,*6A
1512900484.95,13447,2.81,71812.0,-13.25,-46.49,-47.09,0,*65
1512900486.17,13448,2.81,71808.8,-13.27,-47.09,-47.31,0,*66
1512900487.45,13449,2.81,71818.0,-13.27,-46.07,-46.49,0,*66
1512900488.67,13450,2.81,71820.3,-13.27,-45.67,-46.21,0,*65
1512900489.93,13451,2.81,71820.0,-13.29,-45.81,-46.21,0,*62
1512900491.17,13452,2.81,71822.5,-13.27,-46.69,-47.09,0,*61
1512900492.46,13453,2.81,71832.3,-13.29,-46.27,-46.69,0,*63
1512900493.76,13454,2.81,71824.3,-13.29,-46.27,-46.69,0,*64
1512900495.03,13455,2.81,71820.5,-13.33,-45.87,-46.49,0,*65
1512900496.32,13456,2.81,71828.3,-13.33,-45.73,-46.15,0,*64
1512900497.56,13457,2.81,71826.5,-13.29,-44.53,-44.99,0,*6B
1512900498.8,13458,2.81,71814.0,-13.33,-45.67,-45.53,0,*6E
1512900500.05,13459,2.81,71808.3,-13.33,-45.53,-45.87,0,*61